Regional Weather Roundup
Issued by NWS

Home | Current Version | Previous Version | Text Only | Print | Product List | Glossary Off
Versions: 1 2 3 4 5 6 7 8 9 10 11 12 13 14 15 16 17 18 19 20 21 22 23 24 25 26 27 28 29 30 31 32 33 34 35 36 37 38 39 40 41 42 43 44 45 46 47 48 49 50

000
ASUS43 KFSD 241610
RWRSD

WEATHER ROUNDUP FOR SOUTH DAKOTA
NATIONAL WEATHER SERVICE SIOUX FALLS SD
1100 AM CDT THU JUL 24 2014

NOTE: "FAIR" INDICATES FEW OR NO CLOUDS BELOW 12,000 FEET WITH NO
SIGNIFICANT WEATHER AND/OR OBSTRUCTIONS TO VISIBILITY.


SDZ001>005-009-010-012>017-241700-
NORTHWEST AND NORTH CENTRAL SOUTH DAKOTA

CITY           SKY/WX    TMP DP  RH WIND       PRES   REMARKS
BUFFALO          N/A     73  63  70 E17       29.79S
FAITH            N/A     76  64  66 E15G22    29.84R
MOBRIDGE       CLOUDY    75  63  66 SE20G25   29.85R
$$

SDZ012>016-024>037-041>051-057-063-072>074-241700-
SOUTHWEST AND SOUTH CENTRAL SOUTH DAKOTA

CITY           SKY/WX    TMP DP  RH WIND       PRES   REMARKS
RAPID CTY ARPT MOSUNNY   82  68  62 S9        29.82F
PIERRE         MOSUNNY   79  63  57 SE23G29   29.84S
CUSTER         PTSUNNY   82  49  31 W10G18    30.02F
ELLSWORTH AFB  MOSUNNY   81  69  65 S13       29.81F
PHILIP         MOSUNNY   86  65  49 VRB5      29.79F
PINE RIDGE     SUNNY     84  68  58 S12       29.88F
WINNER         FAIR      83  64  52 SE24G35   29.87F
$$

SDZ004>011-016>023-039-040-241700-
NORTHEAST SOUTH DAKOTA

CITY           SKY/WX    TMP DP  RH WIND       PRES   REMARKS
ABERDEEN       CLOUDY    69  58  67 SE18      29.93F
WATERTOWN      CLOUDY    68  59  73 SE17      30.03F
SISSETON         N/A     72  58  61 S17G23    30.00F
$$

SDZ017-020-022-023-036>040-048>070-241700-
SOUTHEAST SOUTH DAKOTA

CITY           SKY/WX    TMP DP  RH WIND       PRES   REMARKS
SIOUX FALLS    CLOUDY    69  61  75 SE8       30.06F THUNDER
HURON          CLOUDY    71  63  75 E22G29    29.94F
CHAMBERLAIN    PTSUNNY   74  63  69 SE25G35   29.88F
MITCHELL       PTSUNNY   77  63  61 S16G25    29.96F
YANKTON        MOSUNNY   75  63  64 S21G28    30.02F
$$

ABBREVIATIONS USED IN REMARKS
   TC - TEMPERATURE IN CELSIUS
  WCI - WIND CHILL INDEX
   HX - HEAT INDEX
  VSB - VISIBILITY




USA.gov is the U.S. government's official web portal to all federal, state and local government web resources and services.